Home   Weather   United Kingdom   Cambridge   Past weeks
Flag for United Kingdom

Past Weather in Cambridge, England, United Kingdom — July 2019

Currently: 50 °F. Fog. (Weather station: Mildenhall Royal Air Force Base, United Kingdom). See more current weather

July 2019 Weather in Cambridge — Graph

°F

High & Low Weather Summary for July 2019

 TemperatureHumidityPressure
High98 °F (Jul 25, 3:56 pm)100% (Jul 1, 6:56 am)30.36 "Hg (Jul 1, 6:56 am)
Low47 °F (Jul 4, 4:56 am)30% (Jul 17, 4:18 pm)29.60 "Hg (Jul 28, 7:25 am)
Average66 °F79%29.96 "Hg
* Reported Jul 1 12:00 am — Jul 31 11:56 pm, Cambridge. Weather by CustomWeather, © 2021

Note: Actual official high and low records may vary slightly from our data, if they occured in-between our weather recording intervals... More about our weather records

Cambridge Weather History for July 1, 2019

Scroll right to see more
 ConditionsComfort  
Time TempWeatherWind HumidityBarometerVisibility
12:00 am
Mon, Jul 1
61 °FClear.13 mph77%29.99 "HgN/A
12:56 am61 °FClear.6 mph77%30.01 "HgN/A
1:56 am61 °FClear.6 mph72%30.00 "HgN/A
2:57 am59 °FClear.6 mph77%30.00 "HgN/A
3:55 am57 °FClear.6 mph82%30.01 "HgN/A
4:55 am55 °FPassing clouds.7 mph82%30.01 "HgN/A
5:56 am55 °FPassing clouds.8 mph82%30.02 "HgN/A
6:56 am59 °FSunny.14 mph100%30.02 "HgN/A
7:58 am63 °FSunny.16 mph83%30.03 "HgN/A
8:46 am63 °FPartly sunny.15 mph77%30.05 "HgN/A
9:06 am64 °FBroken clouds.17 mph68%30.05 "HgN/A
9:56 am63 °FOvercast.15 mph66%30.07 "HgN/A
10:56 am63 °FOvercast.20 mph64%30.07 "HgN/A
11:56 am65 °FPartly sunny.14 mph61%30.07 "HgN/A
12:16 pm66 °FScattered clouds.14 mph60%30.07 "HgN/A
12:56 pm69 °FPartly sunny.16 mph58%30.07 "HgN/A
1:56 pm67 °FOvercast.15 mph59%30.08 "HgN/A
2:56 pm67 °FOvercast.15 mph61%30.09 "HgN/A
3:31 pm66 °FOvercast.13 mph64%30.10 "HgN/A
3:56 pm66 °FOvercast.14 mph64%30.11 "HgN/A
5:11 pm66 °FMostly cloudy.10 mph64%30.11 "HgN/A
5:36 pm66 °FMore clouds than sun.10 mph68%30.12 "HgN/A
6:56 pm66 °FPartly sunny.10 mph64%30.12 "HgN/A
7:56 pm64 °FScattered clouds.9 mph63%30.15 "HgN/A
8:56 pm64 °FPassing clouds.9 mph64%30.16 "HgN/A
9:56 pm60 °FClear.9 mph71%30.18 "HgN/A
10:56 pm55 °FClear.8 mph94%30.20 "HgN/A
11:56 pm54 °FClear.6 mph94%30.21 "HgN/A
Weather by CustomWeather, © 2021

See weather overview